Location: Philomena
(55.1756°N, 111.6233°W)
Time: 09:14:37
(UTC+00:00)

PCSat - Pass Details

Date: 05 December 2023
Orbit: 784 x 791 km, 67.0° (Epoch: 23 February)

Event Time Altitude Azimuth Distance (km) Brightness Sun altitude
Exits shadow 12:28:03 54° 210° (SSW) 959 9.8 -25.1°
Maximum altitude 12:29:20 83° 131° (SE) 801 9.5 -24.9°
Drops below altitude 10° 12:34:46 10° 43° (NE) 2,363 12.5 -24.2°
Sets 12:37:12 0° 43° (NE) 3,297 13.3 -23.8°
